Paris/Le Bourget Airport

Airport
ICAO code: 
LFPB
IATA Code: 
LBG
Summary
ICAO Region: 
EUR
Territory: 
Location: 
Le Bourget, Bonneuil-en-France, Ile-de-France
Serving: 
Paris
Elevation: 
220 ft
Coordinates: 
Aerial View: 
48° 57' 41.166" N, 2° 26' 9.356" E
Metar
Observation
LFPB 020330Z AUTO 32006KT 270V360 9999 -RA BKN039 BKN058 OVC072 06/03 Q1005 NOSIG
Station
Paris / Le Bourget
Date/Time
2021-12-02 03:30:00
Wind direction
320°
Wind speed
06 kts
Lowest cloud amount
broken clouds
Temperature
6°C
Dew point
3°C
Humidity
81%
QNH
1005 hPa
Weather condition
light rain

Description

Paris - Le Bourget Airport is an airport located in Le Bourget, Bonneuil-en-France, and Dugny, 6 nm north-northeast (NNE) of Paris, France. It is now used only for general aviation (business jets) as well as air shows.

Climatology

Temperate Marine climate/Oceanic climate (Köppen climate classification Cfb). Moderately cool summer and comparatively warm winter. Prevailing south-westerly winds from the Atlantic Ocean.

Runways

Designator Length Width Surface Rops
9/27 1845 45 ASP Yes/Yes
3/21 2665 60 ASP Yes/Yes
7/25 3000 45 CON Yes/Yes
Airport map: 
Aerial View: 

Accidents and Serious Incidents at or in the vicinity of LFPB

SKYbrary Partners:

Safety knowledge contributed by: